{"data":{"norad_id":68253,"intl_designator":"2026-054X","name":"STARLINK-37086","alt_names":[],"object_type":"PAYLOAD","status":"ACTIVE","operator":null,"country":"US","launch_date":"2026-03-17","launch_site_code":"AFETR","launch_vehicle":null,"mission":null,"orbit_class":"UNKNOWN","rcs_meters":null,"size_class":null,"mass_kg":null,"dimensions":null,"purposes":["comms"],"wikipedia_slug":null,"has_3d_model":false,"image_url":null,"decayed_at":null,"tle_current":{"epoch":"2026-09-19T22:31:33.699072Z","epoch_age_seconds":99616,"freshness":"FRESH","line1":"1 68253U 26054X   26262.93858448  .00016150  00000+0  48796-3 0  9997","line2":"2 68253  53.1584 104.5615 0001308  92.1241 267.9911 15.34407361 28879","mean_motion":15.34407361,"eccentricity":0.0001308,"inclination_deg":53.1584,"raan_deg":104.5615,"arg_perigee_deg":92.1241,"mean_anomaly_deg":267.9911,"bstar":0.00048796,"rev_number":2887,"period_min":93.847307866245,"perigee_km":461.78658280958,"apogee_km":463.57614089304,"semimajor_km":6840.8183618513,"source":"CELESTRAK","updated_at":"2026-09-20T09:00:43.843772Z"}}}